Simultaneous Nadir Overpasses (SNOs) Predictions

Prediction of SNOs between GOES-17 and METOP-A Satellite Orbit:

Table of predicted SNOs for the next 14.0 days since TLE Epoch: 2/6/2021
Index Date Time (GOES-17) GOES-17 Lat,Lon METOP-A Lat,Lon Distance(km) Time Diff (sec)
1 02/07/2021 05:46:42 -0.01,-137.21 -0.87,-141.20 454.34 80
2 02/08/2021 05:23:21 -0.01,-137.20 0.18,-136.21 111.72 80
3 02/09/2021 17:42:13 0.02,-137.20 0.81,-140.82 412.28 80
4 02/10/2021 17:24:14 0.02,-137.18 -0.30,-135.84 153.37 80
5 02/12/2021 05:40:34 -0.01,-137.15 -0.72,-140.48 378.40 80
6 02/13/2021 05:22:34 -0.02,-137.14 0.33,-135.49 187.34 80
7 02/14/2021 17:38:46 0.02,-137.13 0.66,-140.10 337.21 80
8 02/15/2021 17:20:47 0.02,-137.12 -0.45,-135.12 228.31 80
9 02/17/2021 05:37:06 -0.01,-137.08 -0.62,-139.74 304.04 80
10 02/18/2021 05:19:06 -0.01,-137.06 0.49,-134.77 261.08 80
11 02/19/2021 17:35:19 0.01,-137.04 0.50,-139.37 264.70 80
